Greensboro, GA

8:00 AM EDT on July 22, 2017 (GMT -0400)
Greensboro

Weather History for K3J7 - August, 2013

Change the Weather History Date:

Thursday, August 1, 2013

  Actual Average (KDBN) Record (KDBN)
Temperature  
Mean Temperature 78 °F -  
Max Temperature 86 °F 91 °F 103 °F (1986)
Min Temperature 69 °F 67 °F 62 °F (1966)
Cooling Degree Days 12    
Growing Degree Days 28 (Base 50)    
Moisture  
Dew Point 69 °F    
Average Humidity 82    
Maximum Humidity 100    
Minimum Humidity 58    
Precipitation  
Precipitation 0.00 in - - ()
Sea Level Pressure  
Sea Level Pressure 29.95 in    
Wind  
Wind Speed 2 mph (SW)    
Max Wind Speed 13 mph    
Max Gust Speed 22 mph    
Visibility 8 miles    
Events Rain , Thunderstorm    
Averages and records for this station are not official NWS values.
T = Trace of Precipitation, MM = Missing Value Source: NWS Daily Summary

Daily Weather History Graph

Daily Weather History Graph

Search for Another Location

Airport or City:

Trip Planner

Search our weather history database for the weather conditions in past years. The results will help you decide how hot, cold, wet, or windy it might be!

Date:

Astronomy

Aug. 01, 2013 Rise Set
Actual Time 6:44 AM EDT 8:32 PM EDT
Civil Twilight 6:17 AM EDT 8:59 PM EDT
Nautical Twilight 5:44 AM EDT 9:32 PM EDT
Astronomical Twilight 5:10 AM EDT 10:06 PM EDT
Moon 2:21 AM EDT (8/1) 4:38 PM EDT (8/1)
Length of Visible Light 14h 41m
Length of Day
13h 47m
Waning Crescent, 23% of the Moon is Illuminated
Aug 1
Waning Crescent
Aug 6
New
Aug 14
First Quarter
Aug 20
Full
Aug 28
Last Quarter

Hourly Weather History & Observations

Time (EDT) Temp. Heat Index Dew Point Humidity Pressure Visibility Wind Dir Wind Speed Gust Speed Precip Events Conditions
12:15 AM 69.8 °F - 68.0 °F 94% 30.00 in 7.0 mi Calm Calm - N/A   Overcast
12:35 AM 69.8 °F - 68.0 °F 94% 30.00 in 7.0 mi South 3.5 mph - N/A   Mostly Cloudy
12:55 AM 69.8 °F - 68.0 °F 94% 29.99 in 7.0 mi Calm Calm - N/A   Overcast
1:15 AM 69.8 °F - 68.0 °F 94% 29.99 in 7.0 mi South 3.5 mph - N/A Thunderstorm Overcast
1:35 AM 69.8 °F - 68.0 °F 94% 29.98 in 7.0 mi Calm Calm - N/A   Overcast
1:55 AM 69.8 °F - 68.0 °F 94% 29.98 in 7.0 mi Calm Calm - N/A Thunderstorm Overcast
2:15 AM 69.8 °F - 68.0 °F 94% 29.97 in 5.0 mi Calm Calm - N/A Rain Rain
2:35 AM 69.8 °F - 68.0 °F 94% 29.97 in 4.0 mi Calm Calm - N/A   Overcast
2:55 AM 69.8 °F - 68.0 °F 94% 29.96 in 5.0 mi SSW 3.5 mph - N/A Thunderstorm Overcast
3:15 AM 69.8 °F - 68.0 °F 94% 29.97 in 5.0 mi SW 3.5 mph - N/A   Overcast
3:35 AM 69.8 °F - 68.0 °F 94% 29.97 in 5.0 mi WSW 3.5 mph - N/A Thunderstorm Overcast
3:55 AM 69.8 °F - 68.0 °F 94% 29.97 in 2.0 mi WSW 4.6 mph - N/A Rain , Thunderstorm Heavy Thunderstorms and Rain
4:15 AM 69.8 °F - 68.0 °F 94% 29.97 in 4.0 mi Calm Calm - N/A Rain , Thunderstorm Thunderstorms and Rain
4:35 AM 69.8 °F - 68.0 °F 94% 29.96 in 4.0 mi Calm Calm - N/A Rain Rain
4:55 AM 69.8 °F - 68.0 °F 94% 29.96 in 4.0 mi South 3.5 mph - N/A Rain Light Rain
5:15 AM 69.8 °F - 68.0 °F 94% 29.95 in 5.0 mi SSW 5.8 mph - N/A Thunderstorm Overcast
5:35 AM 69.8 °F - 68.0 °F 94% 29.95 in 7.0 mi SW 4.6 mph - N/A   Overcast
5:55 AM 69.8 °F - 68.0 °F 94% 29.95 in 7.0 mi SSW 4.6 mph - N/A   Overcast
6:15 AM 69.8 °F - 68.0 °F 94% 29.96 in 7.0 mi SSW 4.6 mph - N/A   Overcast
6:35 AM 69.8 °F - 68.0 °F 94% 29.96 in 7.0 mi Calm Calm - N/A   Overcast
6:55 AM 69.8 °F - 68.0 °F 94% 29.96 in 5.0 mi Calm Calm - N/A   Overcast
7:15 AM 69.8 °F - 68.0 °F 94% 29.96 in 5.0 mi SW 3.5 mph - N/A   Overcast
7:35 AM 69.8 °F - 68.0 °F 94% 29.96 in 5.0 mi Calm Calm - N/A   Overcast
7:55 AM 69.8 °F - 68.0 °F 94% 29.98 in 5.0 mi Calm Calm - N/A   Overcast
8:15 AM 69.8 °F - 68.0 °F 94% 29.98 in 5.0 mi Calm Calm - N/A   Overcast
8:35 AM 69.8 °F - 68.0 °F 94% 29.98 in 5.0 mi Calm Calm - N/A   Overcast
8:55 AM 69.8 °F - 69.8 °F 100% 29.98 in 5.0 mi Calm Calm - N/A   Overcast
9:15 AM 71.6 °F - 69.8 °F 94% 29.98 in 10.0 mi Calm Calm - N/A   Overcast
9:35 AM 71.6 °F - 69.8 °F 94% 29.97 in 10.0 mi Calm Calm - N/A   Mostly Cloudy
9:55 AM 73.4 °F - 69.8 °F 88% 29.98 in 10.0 mi Calm Calm - N/A   Overcast
10:15 AM 73.4 °F - 69.8 °F 88% 29.98 in 10.0 mi SW 3.5 mph - N/A   Overcast
10:35 AM 73.4 °F - 69.8 °F 88% 29.97 in 10.0 mi West 4.6 mph - N/A   Overcast
10:55 AM 73.4 °F - 69.8 °F 88% 29.97 in 10.0 mi West 4.6 mph - N/A   Overcast
11:15 AM 75.2 °F - 69.8 °F 83% 29.97 in 10.0 mi West 3.5 mph - N/A   Overcast
11:35 AM 77.0 °F - 69.8 °F 78% 29.97 in 10.0 mi West 5.8 mph - N/A   Overcast
11:55 AM 77.0 °F - 69.8 °F 78% 29.97 in 10.0 mi West 4.6 mph - N/A   Overcast
12:15 PM 77.0 °F - 69.8 °F 78% 29.96 in 10.0 mi WSW 4.6 mph - N/A   Mostly Cloudy
12:35 PM 78.8 °F - 69.8 °F 74% 29.96 in 10.0 mi WSW 5.8 mph - N/A   Scattered Clouds
12:55 PM 80.6 °F 83.9 °F 69.8 °F 70% 29.95 in 10.0 mi SW 5.8 mph - N/A   Scattered Clouds
1:15 PM 80.6 °F 83.9 °F 69.8 °F 70% 29.95 in 10.0 mi WSW 4.6 mph - N/A   Scattered Clouds
1:35 PM 80.6 °F 83.9 °F 69.8 °F 70% 29.94 in 10.0 mi Calm Calm - N/A   Mostly Cloudy
1:55 PM 82.4 °F 86.3 °F 69.8 °F 66% 29.94 in 10.0 mi Calm Calm - N/A   Scattered Clouds
2:15 PM 82.4 °F 86.3 °F 69.8 °F 66% 29.93 in 10.0 mi West 5.8 mph - N/A   Scattered Clouds
2:35 PM 82.4 °F 86.3 °F 69.8 °F 66% 29.92 in 10.0 mi NW 3.5 mph - N/A   Scattered Clouds
2:55 PM 82.4 °F 86.3 °F 69.8 °F 66% 29.91 in 10.0 mi West 3.5 mph - N/A   Scattered Clouds
3:15 PM 82.4 °F 86.3 °F 69.8 °F 66% 29.92 in 10.0 mi West 5.8 mph - N/A   Scattered Clouds
3:35 PM 86.0 °F 90.4 °F 69.8 °F 58% 29.91 in 10.0 mi SW 4.6 mph - N/A   Mostly Cloudy
3:55 PM 84.2 °F 89.6 °F 71.6 °F 66% 29.91 in 10.0 mi WSW 4.6 mph - N/A   Mostly Cloudy
4:15 PM 86.0 °F 90.4 °F 69.8 °F 58% 29.91 in 10.0 mi WSW 3.5 mph - N/A   Scattered Clouds
4:35 PM 84.2 °F 88.4 °F 69.8 °F 62% 29.90 in 10.0 mi West 5.8 mph - N/A   Scattered Clouds
4:55 PM 84.2 °F 89.6 °F 71.6 °F 66% 29.90 in 10.0 mi West 3.5 mph - N/A   Scattered Clouds
5:15 PM 86.0 °F 90.4 °F 69.8 °F 58% 29.90 in 10.0 mi West 6.9 mph - N/A   Scattered Clouds
5:35 PM 86.0 °F 90.4 °F 69.8 °F 58% 29.89 in 10.0 mi West 3.5 mph - N/A   Clear
5:55 PM 84.2 °F 89.6 °F 71.6 °F 66% 29.88 in 10.0 mi Calm Calm - N/A   Scattered Clouds
6:15 PM 86.0 °F 90.4 °F 69.8 °F 58% 29.88 in 10.0 mi Calm Calm - N/A   Scattered Clouds
6:35 PM 86.0 °F 91.8 °F 71.6 °F 62% 29.89 in 10.0 mi Calm Calm - N/A   Clear
6:55 PM 86.0 °F 90.4 °F 69.8 °F 58% 29.90 in 10.0 mi West 3.5 mph - N/A   Clear
7:15 PM 84.2 °F 88.4 °F 69.8 °F 62% 29.90 in 10.0 mi SSW 3.5 mph - N/A   Clear
7:35 PM 82.4 °F 86.3 °F 69.8 °F 66% 29.90 in 10.0 mi Calm Calm - N/A   Clear
7:55 PM 82.4 °F 87.2 °F 71.6 °F 70% 29.91 in 10.0 mi Calm Calm - N/A   Clear
8:15 PM 78.8 °F - 71.6 °F 78% 29.91 in 10.0 mi Calm Calm - N/A   Clear
8:35 PM 78.8 °F - 71.6 °F 78% 29.92 in 10.0 mi Calm Calm - N/A   Clear
8:55 PM 78.8 °F - 71.6 °F 78% 29.92 in 10.0 mi Calm Calm - N/A   Scattered Clouds
9:15 PM 77.0 °F - 71.6 °F 83% 29.92 in 10.0 mi Calm Calm - N/A   Scattered Clouds
9:35 PM 77.0 °F - 73.4 °F 89% 29.92 in 10.0 mi SE 3.5 mph - N/A   Scattered Clouds
9:55 PM 75.2 °F - 69.8 °F 83% 29.94 in 5.0 mi West 12.7 mph 21.9 mph N/A Rain Heavy Rain
10:15 PM 73.4 °F - 69.8 °F 88% 29.95 in 1.5 mi West 5.8 mph - N/A Rain Heavy Rain
10:35 PM 71.6 °F - 69.8 °F 94% 29.93 in 1.2 mi East 5.8 mph - N/A Rain Rain
10:55 PM 71.6 °F - 69.8 °F 94% 29.93 in 10.0 mi SE 4.6 mph - N/A   Scattered Clouds
11:15 PM 71.6 °F - 69.8 °F 94% 29.94 in 5.0 mi Calm Calm - N/A   Scattered Clouds
11:35 PM 71.6 °F - 69.8 °F 94% 29.94 in 7.0 mi SE 4.6 mph - N/A Thunderstorm Scattered Clouds
11:55 PM 71.6 °F - 71.6 °F 100% 29.94 in 7.0 mi Calm Calm - N/A   Clear